Flag for Micronesia Weather past 2 weeks in Palikir, Ponape, Micronesia

Now
75 °F

Sprinkles. Mostly cloudy.


Feels Like: 73 °F
Forecast: 75 / 85 °F
Wind: 7 mph from Southwest

Location: Pohnpei

Current Time: Jul 26, 2014 at 2:12:53 AM

Latest Report: Jul 26, 2014 at 1:55 AM


Visibility: 10 mi

Pressure: 29.86 "Hg

Humidity: 95%

Dew point: 73 °F

Location of PalikirLocation

Historic Weather in Palikir — Graph

°F

Palikir temperature yesterday

Maximum temperature yesterday: 88 °F (at 1:50 PM)
Minimum temperature yesterday: 75 °F (at 3:52 AM)
Average temperature yesterday: 81 °F

Past Weeks' High & Low Weather Summary

 TemperatureHumidityPressure
High89 °F (Jul 21, 2:55 PM)99% (Jul 13, 5:52 AM)29.91 "Hg (Jul 13, 5:52 AM)
Low74 °F (Jul 11, 3:52 AM)58% (Jul 25, 9:50 PM)29.75 "Hg (Jul 23, 3:55 AM)
Average80 °F87%29.83 "Hg
* Reported Jul 11 12:51 AM — Jul 26 12:55 AM, Palikir, Weather by CustomWeather, © 2014

Note: Actual official high and low records may vary slightly from our data, if they occured in-between our weather recording intervals... More about our weather records

Advertising

Palikir weather history for previous 24 hours

 ConditionsComfort  
Time TempWeatherWind HumidityBarometerVisibility
12:55 AM
Jul 26
77 °FMostly cloudy.6 mph94%29.87 "Hg15 mi
11:50 PM
Jul 25
78 °FMostly cloudy.3 mph97%29.88 "Hg15 mi
10:50 PM77 °FMostly cloudy.3 mph94%29.90 "Hg15 mi
9:50 PM87 °FMostly cloudy.3 mph58%29.91 "Hg15 mi
8:54 PM77 °FSprinkles. Mostly cloudy.2 mph92%29.90 "Hg12 mi
6:50 PM83 °FMostly cloudy.3 mph78%29.86 "Hg15 mi
5:55 PM84 °FMore clouds than sun.3 mph76%29.85 "Hg15 mi
4:50 PM85 °FCloudy.3 mph77%29.82 "Hg15 mi
3:50 PM85 °FMore clouds than sun.6 mph72%29.79 "Hg15 mi
2:58 PM86 °FMore clouds than sun.8 mph72%29.80 "Hg15 mi
1:50 PM88 °FMore clouds than sun.10 mph67%29.82 "Hg15 mi
12:57 PM87 °FMore clouds than sun.8 mph69%29.83 "Hg15 mi
11:54 AM87 °FMore clouds than sun.10 mph69%29.83 "Hg15 mi
10:53 AM85 °FCloudy.12 mph74%29.85 "Hg15 mi
9:55 AM84 °FMostly cloudy.12 mph77%29.87 "Hg15 mi
8:52 AM82 °FMostly cloudy.3 mph81%29.87 "Hg15 mi
7:52 AM80 °FMostly cloudy.5 mph83%29.86 "Hg15 mi
6:53 AM78 °FMostly cloudy.9 mph89%29.83 "Hg15 mi
5:53 AM77 °FMostly cloudy.3 mph91%29.83 "Hg15 mi
4:56 AM77 °FMostly cloudy.3 mph95%29.82 "Hg15 mi
3:52 AM75 °FMostly cloudy.2 mph96%29.83 "Hg15 mi
2:54 AM75 °FSprinkles. Mostly cloudy.2 mph95%29.83 "Hg15 mi
Weather by CustomWeather, © 2014

See weather overviewHow to use our weather pages